EW3836 Weather Reports


Display with metric or nautical units.
time (UTC)temp
F
wind
direction
speed
MPH
gust
MPH
rain 1hr
in
rain 24hr
in
rain mn
in
humidity
%
barometer
mb
20260506110054 56 174 0.0 0.0 0.00 0.00 0.00 63 1010.4
20260506104552 57 170 0.0 0.0 0.00 0.00 0.00 62 1010.4
20260506103054 57 166 0.0 0.0 0.00 0.00 0.00 61 1010.3
20260506101549 57 171 0.0 0.0 0.00 0.00 0.00 59 1010.2
20260506100050 58 211 0.0 0.0 0.00 0.00 0.00 57 1010.1
20260506094546 58 201 0.0 0.0 0.00 0.00 0.00 55 1010.0
20260506093045 59 179 0.0 0.0 0.00 0.00 0.00 54 1010.0
20260506091542 58 150 0.0 0.0 0.00 0.00 0.00 55 1009.9
20260506090047 57 146 0.0 0.0 0.00 0.00 0.00 59 1009.8
20260506084548 57 142 0.0 0.0 0.00 0.00 0.00 59 1009.7
20260506083035 57 144 0.0 0.0 0.00 0.00 0.00 60 1009.7
20260506081538 57 137 0.0 0.0 0.00 0.00 0.00 60 1009.7
20260506073026 57 123 0.0 0.0 0.00 0.00 0.00 63 1009.5
20260506071524 57 135 0.0 0.0 0.00 0.00 0.00 63 1009.4
20260506061540 59 151 0.0 0.0 0.00 0.00 0.00 61 1009.1
20260506044517 60 154 0.0 0.0 0.00 0.00 0.00 53 1008.9
20260506043015 61 147 0.0 0.0 0.00 0.00 0.00 53 1008.7
20260506041508 62 115 0.0 0.0 0.00 0.00 0.00 53 1008.5
20260506040009 62 107 0.0 0.0 0.00 0.00 0.00 51 1008.4
20260506034507 63 107 0.0 0.0 0.00 0.00 0.00 51 1008.3
20260506033010 63 111 0.0 0.0 0.00 0.00 0.00 53 1008.1
20260506031506 63 51 0.0 0.0 0.00 0.00 0.00 53 1007.9
20260506030006 64 51 0.0 0.0 0.00 0.00 0.00 54 1007.8
20260506024517 66 49 0.0 0.0 0.00 0.00 0.00 54 1007.9
20260506023005 68 52 0.0 0.0 0.00 0.00 0.00 52 1007.8
20260506021504 69 49 0.0 0.0 0.00 0.00 0.00 51 1007.8
20260506020006 70 44 0.0 0.0 0.00 0.00 0.00 50 1007.7
20260506014502 70 12 0.0 0.0 0.00 0.00 0.00 50 1007.7
20260506013001 71 24 0.0 0.0 0.00 0.00 0.00 51 1007.6
20260506011501 71 17 0.0 0.0 0.00 0.00 0.00 49 1007.5
20260506010001 70 46 0.0 0.0 0.00 0.00 0.00 52 1007.5
20260506004604 69 315 0.0 0.0 0.00 0.00 0.00 50 1007.5
20260506003057 71 306 0.0 0.0 0.00 0.00 0.00 48 1007.5
20260506001554 71 329 0.0 0.0 0.00 0.00 0.00 49 1007.4
20260506000049 71 325 0.0 0.0 0.00 0.00 0.00 47 1007.6
20260505234558 71 324 0.0 0.0 0.00 0.00 0.00 47 1007.6
20260505233047 71 5 0.0 0.0 0.00 0.00 0.00 48 1007.7
20260505231602 71 346 0.0 0.0 0.00 0.00 0.00 48 1007.8
20260505230051 70 332 0.0 0.0 0.00 0.00 0.00 55 1007.8
20260505224546 71 335 0.0 0.0 0.00 0.00 0.00 52 1007.9
20260505223043 71 48 0.0 0.0 0.00 0.00 0.00 51 1007.9
20260505221542 70 330 0.0 0.0 0.00 0.00 0.00 55 1008.0
20260505220042 68 28 0.0 0.0 0.00 0.00 0.00 55 1008.0
20260505214601 69 44 0.0 0.0 0.00 0.00 0.00 54 1008.2
20260505213039 70 317 0.0 0.0 0.00 0.00 0.00 56 1008.2
20260505211535 68 307 0.0 0.0 0.00 0.00 0.00 60 1008.2
20260505210036 69 315 0.0 0.0 0.00 0.00 0.00 60 1008.2
20260505204534 68 288 0.0 0.0 0.00 0.00 0.00 58 1008.3
20260505203028 67 288 0.0 0.0 0.00 0.00 0.00 58 1008.3
20260505201524 66 325 0.0 0.0 0.00 0.00 0.00 60 1008.3
20260505200029 65 295 0.0 0.0 0.00 0.00 0.00 60 1008.4
20260505194522 64 229 0.0 0.0 0.00 0.00 0.00 64 1008.4
20260505193021 63 204 0.0 0.0 0.00 0.00 0.00 66 1008.4
20260505191520 63 292 0.0 0.0 0.00 0.00 0.00 64 1008.4
20260505190025 63 300 0.0 0.0 0.00 0.00 0.00 69 1008.6
20260505184520 63 278 0.0 0.0 0.00 0.00 0.00 66 1008.6
20260505183026 62 294 0.0 0.0 0.00 0.00 0.00 65 1008.5
20260505181519 62 256 0.0 0.0 0.00 0.00 0.00 68 1008.4
20260505180015 62 304 0.0 0.0 0.00 0.00 0.00 67 1008.3
20260505174513 62 219 0.0 0.0 0.00 0.00 0.00 69 1008.2
20260505173012 61 259 0.0 0.0 0.00 0.00 0.00 72 1008.1
20260505171510 61 273 0.0 0.0 0.00 0.00 0.00 67 1008.1
20260505170009 61 282 0.0 0.0 0.00 0.00 0.00 68 1007.9
20260505164507 60 250 0.0 0.0 0.00 0.00 0.00 68 1007.8
20260505163010 60 302 0.0 0.0 0.00 0.00 0.00 67 1007.7
20260505161505 60 239 0.0 0.0 0.00 0.00 0.00 70 1007.6
20260505153002 59 241 0.0 0.0 0.00 0.00 0.00 69 1007.3
20260505151611 58 245 0.0 0.0 0.00 0.00 0.00 69 1007.2
20260505140111 56 247 0.0 0.0 0.00 0.00 0.00 72 1006.5
20260505124544 55 197 0.0 0.0 0.00 0.00 0.00 70 1005.8
20260505123047 56 199 0.0 0.0 0.00 0.00 0.00 69 1005.8
20260505121540 56 199 0.0 0.0 0.00 0.00 0.00 68 1005.7
20260505120045 56 228 0.0 0.0 0.00 0.00 0.00 68 1005.5
20260505114544 56 224 0.0 0.0 0.00 0.00 0.00 67 1005.4
20260505113031 56 202 0.0 0.0 0.00 0.00 0.00 67 1005.3
20260505111528 57 155 0.0 0.0 0.00 0.00 0.00 66 1005.2